GEFSCGP_850_meantemp_108.txt.gz
Temperature
24 21 20 21 21 21 21 21 21 22 23 22 21 21 21 21 21 21 21 21 21 20 20 19 19 18 18 17 17 16 16 15 15 14 14 14 14 13 13 13 13 13 13 13
21 21 22 22 22 22 22 22 21 22 23 23 21 21 21 21 21 21 21 21 21 20 19 19 19 18 18 17 17 16 16 15 15 14 14 14 13 13 13 13 13 13 13 13
20 21 23 23 23 22 22 21 22 22 23 23 22 20 21 21 21 21 22 21 21 20 20 19 19 18 18 17 16 16 15 15 15 14 14 14 13 13 13 13 13 13 13 12
21 22 23 23 23 23 22 23 23 23 22 20 22 19 20 20 20 20 20 21 21 20 20 19 19 18 17 17 16 16 15 15 14 14 14 13 13 13 13 13 13 12 12 12
21 22 22 23 23 23 22 24 24 23 22 20 20 19 19 20 20 20 19 20 21 20 20 19 19 18 17 17 16 16 15 15 14 14 14 13 13 13 13 12 12 12 12 12
21 22 22 23 23 24 24 22 21 18 18 19 20 19 20 18 19 19 19 20 20 20 20 19 19 18 17 17 16 16 15 15 14 14 14 13 13 13 13 12 12 12 12 12
21 22 23 23 23 24 22 20 19 19 18 19 20 19 19 20 20 19 19 20 20 20 20 19 19 18 17 17 16 16 15 15 14 14 14 13 13 13 12 12 12 12 12 12
20 20 22 23 23 23 22 20 19 19 19 19 19 20 19 21 21 22 22 21 21 20 20 19 19 18 18 17 16 16 15 15 15 14 14 13 13 13 13 12 12 12 12 12
20 21 23 24 24 23 23 20 19 18 19 19 19 20 21 21 20 20 20 21 21 20 20 20 19 18 18 17 17 16 16 15 15 14 14 13 13 13 13 12 12 12 12 12
21 21 22 23 24 24 22 20 18 18 19 19 20 20 18 20 19 19 19 20 21 20 20 19 19 18 18 17 17 16 16 15 15 14 14 14 13 13 13 13 12 12 12 12
21 20 21 22 23 23 23 23 19 16 17 18 19 19 19 19 19 19 19 21 21 21 20 20 19 19 18 17 17 16 16 15 15 14 14 14 13 13 13 13 12 12 12 12
20 19 19 21 22 22 22 22 19 19 19 17 17 18 20 19 20 20 21 22 21 21 20 20 19 19 18 17 17 16 16 15 15 15 14 14 14 13 13 13 13 12 12 12
20 19 19 20 20 22 23 22 19 17 17 16 17 19 20 20 20 21 22 21 21 21 20 20 19 19 18 18 17 17 16 16 15 15 14 14 14 13 13 13 13 12 12 12
20 19 19 20 20 21 22 23 21 18 17 18 19 20 21 20 20 20 21 21 21 21 20 20 19 19 18 18 17 17 16 16 15 15 14 14 14 13 13 13 13 13 12 12
19 20 21 21 21 22 22 22 22 20 19 18 19 20 20 20 19 21 21 21 21 20 20 20 19 19 18 18 17 17 16 16 15 15 15 14 14 14 13 13 13 13 13 12
19 21 21 21 22 22 22 22 21 21 21 20 20 20 20 21 21 21 21 21 21 20 20 20 19 19 18 18 18 17 17 16 16 15 15 14 14 14 14 13 13 13 13 13
19 19 20 19 20 21 21 22 22 21 21 20 20 20 20 20 20 21 22 21 21 21 20 20 19 19 19 18 18 17 17 16 16 15 15 15 14 14 14 14 13 13 13 13
19 18 17 18 20 21 20 21 22 22 22 21 21 20 20 21 22 22 22 22 21 21 20 20 19 19 18 18 18 17 17 16 16 16 15 15 15 14 14 14 13 13 13 13
18 18 17 17 19 19 20 22 22 22 22 21 20 20 21 21 21 20 21 22 21 21 20 20 19 19 18 18 17 17 17 16 16 16 15 15 15 14 14 14 13 13 13 13
17 17 17 17 19 19 20 22 23 22 21 21 21 20 20 20 17 18 21 21 21 20 20 19 19 18 18 17 17 17 17 16 16 15 15 15 14 14 14 14 14 13 13 13
19 17 17 16 17 18 19 22 22 21 20 22 22 22 21 20 20 21 21 21 20 20 19 19 18 18 17 17 17 17 16 16 15 15 15 15 14 14 14 14 14 13 13 13
17 17 16 15 17 18 20 22 20 20 22 23 23 23 23 22 22 21 21 20 20 19 19 18 18 17 17 17 17 16 16 16 15 15 15 15 14 14 14 14 14 14 13 13
17 17 16 16 18 20 22 23 24 24 23 23 23 23 23 22 21 21 20 20 19 19 18 18 18 17 17 16 16 16 16 16 15 15 15 15 14 14 14 14 14 14 14 13
17 18 17 17 18 20 22 23 23 24 24 23 23 23 22 22 21 20 20 19 19 19 18 18 17 17 17 16 16 16 16 15 15 15 15 15 14 14 14 14 14 14 14 13
18 18 17 17 18 20 21 22 23 23 23 23 22 22 22 22 21 20 20 19 19 18 18 17 17 17 16 16 16 16 16 15 15 15 15 14 14 14 14 14 13 13 13 13
17 18 17 17 19 18 21 23 23 22 22 22 22 21 21 21 21 20 20 19 19 18 17 17 17 16 16 16 16 16 15 15 15 15 14 14 14 13 13 13 13 13 13 13

GEFSCGP_850_meantemp_114.txt.gz
Temperature
20 18 18 18 19 20 20 20 20 20 21 20 19 19 19 19 19 19 19 19 20 20 20 19 19 18 18 17 16 16 15 15 15 14 14 14 14 13 13 13 13 13 13 12
18 18 19 20 20 20 20 20 20 20 21 20 19 19 19 18 18 19 19 19 20 20 19 19 18 18 17 17 16 16 15 15 14 14 14 13 13 13 13 13 13 12 12 12
19 20 20 20 20 20 20 20 20 20 20 20 20 19 19 19 19 19 19 20 20 20 19 19 18 18 17 17 16 16 15 15 14 14 14 13 13 13 13 13 13 12 12 12
19 19 20 20 20 20 20 20 20 20 19 18 20 18 19 18 18 18 18 19 19 19 19 19 18 18 17 17 16 16 15 15 14 14 14 13 13 13 13 12 12 12 12 12
19 19 20 20 20 20 20 20 20 20 19 18 18 18 17 18 19 18 17 18 19 20 19 19 19 18 17 17 16 16 15 15 14 14 14 13 13 13 13 12 12 12 12 12
19 20 20 20 21 20 20 19 18 16 17 18 19 18 18 17 18 19 18 19 20 20 19 19 18 18 17 17 16 15 15 15 14 14 14 13 13 13 13 13 12 12 12 12
20 20 20 20 20 20 19 18 18 18 17 18 18 18 17 18 18 18 18 19 20 20 19 19 18 18 17 17 16 16 15 15 14 14 14 13 13 13 13 12 12 12 12 12
19 19 20 20 20 20 19 18 18 19 18 17 17 17 18 18 19 19 20 20 20 20 20 19 19 18 17 17 16 16 15 15 14 14 14 13 13 13 13 12 12 12 12 12
18 19 20 21 21 19 19 18 18 17 17 17 17 18 18 20 19 19 19 19 20 20 20 19 19 18 17 17 16 16 15 15 14 14 14 13 13 13 13 12 12 12 12 12
18 19 20 20 20 19 19 16 15 16 17 18 18 18 18 19 19 18 18 19 20 20 20 19 19 18 18 17 16 16 15 15 15 14 14 13 13 13 13 13 12 12 12 12
18 19 19 20 21 20 19 18 15 14 15 16 17 18 18 18 19 18 18 20 21 21 20 20 19 18 18 17 17 16 16 15 15 14 14 14 13 13 13 13 13 12 12 12
17 17 18 19 20 20 20 18 16 18 17 15 16 17 18 17 17 18 19 21 21 21 20 20 19 18 18 17 17 16 16 15 15 14 14 14 13 13 13 13 13 13 12 12
18 17 18 19 19 20 20 18 17 15 14 13 15 18 18 18 18 19 20 21 21 21 20 20 19 19 18 17 17 16 16 15 15 15 14 14 14 13 13 13 13 13 12 12
18 17 18 19 19 20 20 19 17 16 15 15 15 17 18 19 18 19 20 21 21 21 20 20 19 19 18 18 17 17 16 16 15 15 14 14 14 14 13 13 13 13 12 12
18 18 18 18 19 20 20 20 18 18 17 17 17 17 18 18 18 20 21 21 21 20 20 20 19 19 18 18 17 17 16 16 15 15 15 14 14 14 13 13 13 13 12 12
16 18 19 19 20 19 20 20 19 18 18 17 18 18 18 19 19 19 20 20 20 21 20 20 19 19 18 18 17 17 16 16 15 15 15 14 14 14 14 13 13 13 13 12
16 17 18 18 18 20 19 20 20 19 19 18 18 19 19 18 18 20 21 21 21 21 21 20 19 19 18 18 17 17 16 16 16 15 15 15 14 14 14 13 13 13 13 13
16 16 15 16 19 20 19 19 20 19 19 18 18 18 18 19 20 21 22 22 22 21 21 20 19 19 18 18 17 17 16 16 16 15 15 15 14 14 14 13 13 13 13 13
15 15 14 15 17 18 18 19 19 19 19 19 18 18 18 19 19 20 22 22 22 21 21 20 19 19 18 18 17 17 16 16 16 15 15 15 14 14 14 14 13 13 13 13
13 14 14 14 17 18 19 20 20 20 20 20 19 18 18 18 17 18 22 22 21 21 20 20 19 18 18 17 17 17 16 16 16 15 15 15 14 14 14 14 13 13 13 13
15 14 14 14 16 16 18 19 20 20 19 21 20 20 19 18 20 22 22 21 21 20 20 19 19 18 18 17 17 16 16 16 15 15 15 14 14 14 14 14 13 13 13 13
15 15 14 13 15 17 19 18 18 19 21 21 21 21 21 21 21 22 21 21 20 20 19 19 18 18 17 17 17 16 16 16 15 15 15 14 14 14 14 13 13 13 13 13
14 14 14 14 16 18 19 19 21 21 21 22 22 22 22 22 21 21 21 20 20 20 19 18 18 18 17 17 16 16 16 15 15 15 15 14 14 14 14 13 13 13 13 13
14 14 13 14 15 17 19 20 21 21 21 22 22 22 22 22 22 21 21 20 20 19 19 18 18 17 17 16 16 16 16 15 15 15 15 14 14 14 13 13 13 13 12 12
14 14 14 14 15 17 21 21 21 21 21 22 22 22 22 22 22 21 21 20 19 19 18 18 17 17 17 16 16 16 16 15 15 15 14 14 14 13 13 13 12 12 12 12
12 14 14 15 17 16 19 21 20 20 21 21 21 21 22 22 22 21 20 20 19 19 18 17 17 17 16 16 16 16 15 15 15 14 14 14 13 13 12 12 12 11 11 11

GEFSCGP_850_meantemp_120.txt.gz
Temperature
23 24 24 25 25 25 25 25 25 26 25 25 25 26 26 25 24 24 24 24 23 22 21 20 19 18 18 17 17 16 16 15 15 14 14 14 14 13 13 13 13 12 12 12
23 24 25 25 24 24 24 24 25 25 25 25 25 26 26 25 24 24 24 24 23 22 21 19 19 18 18 17 17 16 16 15 15 14 14 13 13 13 13 13 12 12 12 12
24 25 25 24 24 24 24 24 25 25 24 24 25 26 26 25 24 23 23 23 22 21 21 20 19 18 17 17 17 16 15 15 15 14 14 13 13 13 13 13 12 12 12 12
24 24 24 24 24 24 24 25 24 24 24 25 24 25 27 26 25 24 23 22 22 21 20 20 19 18 17 17 16 16 15 15 14 14 14 13 13 13 13 12 12 12 12 12
24 24 24 24 24 24 24 24 24 24 24 24 25 25 27 26 26 25 24 23 22 21 20 19 19 18 17 17 16 16 15 15 14 14 14 13 13 13 13 12 12 12 12 12
24 24 24 24 24 24 23 23 23 24 25 24 25 25 26 27 26 26 25 23 22 21 20 19 18 18 17 17 16 16 15 15 14 14 14 13 13 13 13 12 12 12 12 12
23 24 23 23 23 23 23 24 23 24 24 24 24 24 26 26 25 25 25 24 22 21 20 19 18 18 17 17 16 16 15 15 14 14 14 13 13 13 13 12 12 12 12 12
23 23 24 24 24 24 24 24 24 23 24 25 24 25 26 25 24 23 23 23 21 21 20 19 19 18 17 17 16 16 15 15 15 14 14 13 13 13 13 12 12 12 12 12
23 23 23 23 24 24 24 24 25 25 24 24 25 25 26 24 24 24 23 22 21 21 20 19 19 18 18 17 17 16 16 15 15 14 14 13 13 13 13 12 12 12 12 12
24 23 24 23 23 22 24 25 24 24 23 23 24 25 26 25 25 25 24 23 22 21 20 20 19 18 18 17 17 16 16 15 15 14 14 14 13 13 13 13 12 12 12 12
23 23 23 23 24 24 23 24 24 25 24 24 24 25 26 26 26 26 25 24 23 22 21 20 19 18 18 17 17 16 16 15 15 14 14 14 13 13 13 13 13 12 12 12
23 23 24 24 24 24 24 25 25 24 24 24 24 25 26 26 25 25 25 23 22 21 21 20 19 18 18 17 17 16 16 15 15 15 14 14 13 13 13 13 13 13 12 12
23 23 23 23 23 23 24 23 24 24 25 24 24 25 26 26 25 24 24 23 22 21 20 20 19 19 18 18 17 17 16 16 15 15 14 14 14 13 13 13 13 13 13 12
22 24 23 23 23 24 23 23 23 24 24 24 24 25 26 26 26 25 24 23 22 21 20 20 19 19 18 18 17 17 16 16 15 15 14 14 14 13 13 13 13 13 13 12
23 23 24 24 24 23 23 24 23 23 25 25 25 25 26 26 26 25 24 23 22 21 20 20 19 19 18 18 17 17 16 16 15 15 14 14 14 14 13 13 13 13 13 13
23 23 24 24 24 23 23 24 24 23 24 24 24 25 26 26 25 24 24 23 22 21 21 20 20 19 19 18 18 17 16 16 15 15 14 14 14 14 14 13 13 13 13 13
23 23 23 23 24 23 23 24 24 24 24 24 24 25 26 25 25 24 24 23 22 22 21 20 20 19 19 18 18 17 16 16 15 15 15 15 14 14 14 13 13 13 13 13
22 23 23 23 23 22 24 25 24 24 24 25 25 25 25 24 24 23 23 22 22 21 21 20 20 19 19 18 18 17 17 16 16 15 15 15 14 14 14 13 13 13 13 13
21 22 22 23 22 23 24 25 24 24 24 25 25 25 24 23 23 23 22 22 22 21 21 20 20 19 19 18 18 17 17 16 16 15 15 15 15 14 14 14 13 13 13 13
20 21 22 22 22 22 24 24 23 24 24 25 24 24 23 23 25 25 22 21 21 21 21 21 20 19 19 18 18 17 16 16 16 15 15 15 15 14 14 14 13 13 13 13
21 21 21 22 22 23 24 22 22 23 24 23 23 23 22 23 24 22 21 21 21 21 21 21 20 19 19 18 18 17 16 16 16 16 15 15 14 14 14 14 13 13 13 13
22 22 22 22 22 22 23 22 23 23 23 22 21 21 21 21 21 20 20 20 21 21 21 20 20 19 19 18 17 17 16 16 16 16 15 15 14 14 14 14 13 13 13 12
21 22 22 22 23 22 21 21 21 20 21 21 20 20 20 20 20 20 20 20 20 20 20 20 19 19 18 18 17 16 16 16 16 15 15 15 14 14 14 13 13 12 12 12
21 20 20 21 22 21 20 20 19 19 19 19 19 19 19 19 20 19 19 19 19 20 20 19 19 18 18 18 17 16 16 16 15 15 15 14 14 14 13 13 13 12 12 12
20 19 20 20 21 21 20 20 19 19 18 19 19 19 19 19 19 19 19 19 19 19 19 19 18 18 18 17 17 16 16 16 15 15 14 14 14 13 13 13 13 12 12 12
19 19 19 20 20 20 20 19 18 18 18 18 18 18 19 18 19 19 19 19 19 19 19 19 18 18 17 17 17 16 16 15 15 14 14 14 13 13 12 12 12 12 12 12

GEFSCGP_850_meantemp_126.txt.gz
Temperature
25 24 23 24 25 24 24 24 24 24 26 25 25 26 26 26 26 26 27 27 26 25 24 23 22 21 21 20 19 19 18 17 17 16 16 15 15 15 15 14 14 14 14 13
24 24 25 26 25 24 24 24 24 25 26 26 26 26 27 27 27 27 27 27 26 25 24 22 22 21 21 20 19 18 18 17 16 16 15 15 15 15 15 14 14 14 13 13
24 25 26 26 25 24 24 24 25 24 25 25 26 26 26 26 27 26 26 26 26 25 24 22 22 21 20 19 19 18 17 17 16 16 15 15 15 15 14 14 14 14 13 13
25 26 26 26 25 25 24 25 26 25 24 24 25 24 25 26 25 26 26 26 26 25 24 22 21 21 20 19 18 18 17 17 16 16 15 15 15 14 14 14 14 14 14 13
25 25 25 25 25 26 25 26 25 25 25 25 26 25 25 26 25 26 26 26 25 25 24 22 21 21 20 19 18 18 17 17 16 16 15 15 15 14 14 14 14 14 14 13
25 26 26 25 26 26 26 25 25 25 25 24 25 25 25 26 26 26 27 26 25 24 24 22 21 20 20 19 18 17 17 17 16 16 16 15 15 14 14 14 14 14 14 13
24 25 26 26 25 25 25 24 23 23 23 24 26 26 25 26 27 27 27 26 25 24 23 22 21 20 19 19 18 17 17 16 16 16 16 15 15 15 14 14 14 14 14 14
23 23 25 26 25 25 25 24 22 21 21 23 25 25 26 27 27 27 27 26 25 24 23 22 21 20 19 18 18 17 17 16 16 16 16 15 15 15 14 14 14 14 14 14
23 23 26 27 27 26 25 24 24 23 22 22 25 26 26 27 26 27 26 25 25 24 23 22 21 20 19 18 18 17 17 16 16 16 16 15 15 15 14 14 14 14 14 14
24 24 25 26 26 26 26 25 24 24 23 23 24 25 25 25 26 26 26 25 25 24 23 22 21 20 19 19 18 17 17 17 16 16 16 15 15 15 14 14 14 14 14 14
25 24 25 25 25 25 26 25 25 25 25 23 23 24 27 26 27 27 26 26 25 24 23 22 21 21 20 19 18 18 17 17 16 16 16 15 15 15 14 14 14 14 14 14
26 24 24 25 27 27 26 26 25 24 24 24 24 24 28 28 27 27 27 26 25 25 24 23 22 21 20 19 19 18 18 17 16 16 16 15 15 15 14 14 14 14 14 14
24 23 23 23 25 26 26 26 26 26 25 24 24 24 28 27 27 27 27 26 25 25 24 23 22 21 20 19 19 18 18 17 17 16 16 15 15 15 14 14 14 14 14 13
23 23 23 22 23 25 25 26 26 25 24 24 25 25 26 27 27 26 26 26 25 24 24 23 22 21 20 20 19 19 18 18 17 16 16 15 15 15 14 14 14 14 14 13
25 24 24 25 26 26 26 26 26 26 25 25 25 26 26 27 27 27 26 26 25 24 24 23 22 21 20 20 19 19 18 18 17 17 16 16 15 15 14 14 14 14 14 14
25 25 25 25 26 26 26 26 26 26 26 26 26 26 27 27 27 27 26 26 25 24 24 23 22 21 20 20 19 19 18 18 17 17 16 16 15 15 15 14 14 14 14 13
24 24 24 24 25 25 25 26 26 26 26 26 25 25 26 26 26 26 26 25 25 24 24 23 22 22 21 20 19 19 18 18 17 17 16 16 15 15 15 14 14 14 14 13
24 24 24 24 24 23 25 27 27 26 26 26 26 26 26 26 26 26 25 25 24 24 23 23 23 22 21 21 20 19 18 18 17 17 16 16 15 15 15 14 14 14 14 13
25 24 23 23 23 24 26 27 27 26 25 26 26 26 26 26 26 25 25 24 24 23 23 23 22 22 21 21 20 19 19 18 18 17 16 16 15 15 15 14 14 14 14 13
25 24 23 23 22 22 25 26 27 26 24 25 25 25 25 25 23 24 24 23 23 23 22 22 22 21 21 21 20 20 19 18 18 17 16 16 15 15 15 14 14 14 14 13
23 23 22 22 22 24 25 26 26 24 23 24 24 24 24 23 23 23 23 23 22 22 21 21 21 21 20 20 20 19 19 18 18 17 16 16 15 15 15 14 14 14 14 13
23 23 23 23 22 23 25 25 24 23 24 23 23 23 23 22 22 22 22 22 21 21 21 21 20 20 20 20 19 19 19 18 18 17 16 16 15 15 15 14 14 14 13 13
23 23 23 23 22 23 23 23 23 23 23 22 22 22 22 21 21 21 21 21 21 20 20 20 20 20 19 19 19 19 18 18 18 17 16 16 15 15 14 14 14 14 13 13
23 24 23 22 23 23 23 22 22 22 21 21 21 21 21 21 20 20 20 20 20 19 19 19 19 19 19 19 18 18 18 18 17 17 16 15 15 15 14 14 14 14 13 13
20 21 21 21 22 22 22 21 21 21 20 20 20 20 20 20 20 20 19 20 19 19 19 19 19 19 18 18 18 18 18 17 17 16 16 15 15 15 14 14 14 14 13 13
20 20 20 20 21 21 21 20 20 19 19 19 19 19 19 19 19 19 19 19 19 18 18 18 18 18 18 18 18 18 17 17 16 16 15 15 15 14 14 14 13 13 13 13

GEFSCGP_850_meantemp_132.txt.gz
Temperature
21 19 18 18 19 19 19 19 19 20 21 20 20 20 20 21 21 21 21 21 21 21 22 21 21 21 20 20 19 19 18 17 17 16 16 16 15 15 14 14 14 14 14 14
19 19 20 20 20 20 20 19 19 20 21 21 20 20 20 20 21 21 21 21 21 21 21 21 21 20 20 20 19 19 18 17 17 16 16 15 15 14 14 14 14 14 14 14
19 20 21 21 20 20 20 20 20 20 20 21 20 20 20 21 21 22 22 22 21 21 21 21 20 20 20 19 19 18 18 17 17 16 16 15 15 15 14 14 14 14 14 13
20 20 21 21 21 21 20 21 21 21 19 18 20 19 20 20 20 20 21 21 21 21 21 21 21 20 20 19 19 18 18 17 16 16 16 15 15 15 14 14 14 14 14 13
20 21 21 21 21 21 21 21 21 21 19 19 19 19 19 20 20 20 20 21 22 22 22 21 21 20 20 19 19 18 17 17 16 16 16 15 15 15 14 14 14 14 14 13
20 21 21 21 22 22 22 20 20 18 17 18 19 19 19 19 20 20 20 21 22 22 22 21 21 20 20 19 18 18 17 17 16 16 16 15 15 15 14 14 14 14 14 14
20 20 22 22 22 21 20 18 17 18 17 18 19 19 19 20 21 21 20 21 22 22 22 21 20 20 19 19 18 18 17 17 16 16 16 15 15 15 14 14 14 14 14 14
19 19 21 22 22 21 20 18 17 18 18 17 18 19 20 21 22 22 22 22 22 22 22 21 21 20 20 19 18 18 17 17 16 16 16 15 15 15 15 14 14 14 14 14
19 19 21 22 22 21 20 18 18 17 18 17 18 20 21 21 21 21 21 21 21 22 22 21 21 20 20 19 19 18 17 17 16 16 16 15 15 15 15 14 14 14 14 14
19 19 21 22 22 22 20 19 17 17 18 18 19 19 19 21 21 21 20 20 21 22 22 21 21 20 20 20 19 18 18 17 17 16 16 15 15 15 15 14 14 14 14 14
20 19 20 21 21 21 21 20 18 16 17 17 18 19 20 20 20 20 20 21 22 22 22 22 21 21 20 20 19 18 18 17 17 16 16 15 15 15 15 14 14 14 14 14
19 17 18 20 21 22 21 21 18 18 18 17 17 18 21 20 20 21 21 22 23 23 22 22 21 21 20 20 19 18 18 17 17 16 16 16 15 15 15 14 14 14 14 14
19 18 18 18 19 20 21 22 20 18 17 17 17 19 21 20 21 22 22 22 23 22 22 22 21 21 20 20 19 19 18 18 17 17 16 16 15 15 15 14 14 14 14 14
19 17 18 19 19 20 20 21 21 19 18 18 19 20 20 20 20 20 22 22 22 22 22 21 21 21 21 20 20 19 18 18 17 17 16 16 16 15 15 14 14 14 14 14
19 18 19 19 20 21 21 21 21 20 19 19 19 20 20 20 20 21 21 22 22 21 21 21 21 21 20 20 20 19 19 18 17 17 17 16 16 15 15 14 14 14 14 14
17 18 19 19 20 20 20 21 21 21 20 20 20 20 20 21 21 21 21 21 21 21 21 21 21 21 21 20 20 19 19 18 18 17 17 16 16 15 15 15 14 14 14 14
16 17 18 17 18 20 20 21 21 21 21 20 20 20 20 20 20 20 21 21 21 21 21 21 21 21 21 20 20 20 19 18 18 17 17 16 16 16 15 15 14 14 14 14
17 17 16 16 18 19 19 20 21 20 20 19 20 20 20 20 21 21 21 21 21 21 21 21 21 21 21 21 20 20 19 19 18 18 17 17 16 16 15 15 14 14 14 14
16 16 16 15 17 18 19 20 20 20 19 19 19 19 20 21 21 20 21 21 21 21 22 22 21 21 21 20 20 20 19 19 18 18 17 17 16 16 15 15 15 14 14 14
16 15 15 15 17 17 18 20 21 19 18 18 18 18 19 19 17 18 21 21 21 21 21 21 21 21 21 20 20 19 19 19 18 18 18 17 16 16 16 15 15 14 14 14
16 15 15 15 16 16 18 19 20 18 17 19 19 19 19 18 18 20 20 20 21 21 21 21 21 20 20 20 19 19 19 19 18 18 18 17 17 16 16 15 15 14 14 14
16 15 15 14 15 16 18 18 17 17 18 19 19 19 19 19 19 19 19 20 20 20 20 20 20 20 20 19 19 19 19 19 18 18 17 17 17 16 16 15 15 14 14 14
15 15 14 14 15 17 18 18 19 19 18 18 19 19 19 19 19 19 19 19 19 19 19 19 19 19 19 19 19 18 18 18 18 18 17 17 17 16 16 15 15 14 14 14
14 14 14 14 15 16 17 18 18 18 18 18 18 18 18 18 18 18 18 18 18 18 18 18 18 18 18 18 18 18 18 18 17 17 17 17 16 16 16 15 15 14 14 14
13 14 13 13 14 15 17 17 17 17 17 17 17 17 17 17 17 17 17 17 17 17 17 17 17 17 17 17 17 17 17 17 17 17 17 17 16 16 16 15 15 14 14 14
12 13 13 13 15 14 15 16 16 16 16 16 17 17 17 16 16 17 17 17 17 17 17 17 17 17 17 17 17 17 17 17 16 16 16 16 16 15 15 15 15 14 14 13

GEFSCGP_850_meantemp_138.txt.gz
Temperature
18 17 16 17 18 19 18 18 18 19 19 19 18 18 18 19 19 18 19 20 20 20 21 20 20 20 19 19 18 18 18 17 17 16 16 15 15 15 14 14 14 14 14 13
17 17 18 18 18 18 18 18 18 19 19 19 18 18 18 18 18 19 19 19 20 20 20 20 20 20 19 19 18 18 18 17 16 16 16 16 15 15 14 14 14 14 13 13
18 18 19 19 19 18 18 18 19 19 19 19 19 19 19 19 18 19 19 20 20 20 20 20 20 20 19 19 18 18 17 17 16 16 16 15 15 15 14 14 14 14 13 13
18 19 19 19 19 19 18 19 19 19 18 17 18 18 18 18 18 18 18 19 20 20 20 20 20 20 19 19 18 18 17 17 16 16 16 15 15 15 14 14 14 14 13 13
19 19 19 19 19 19 19 19 19 19 18 17 17 17 18 18 19 19 18 19 20 20 20 21 20 20 20 19 18 18 17 17 16 16 16 15 15 15 14 14 14 14 13 13
18 19 19 19 20 19 19 18 17 16 16 17 17 17 18 17 19 19 19 19 20 20 20 20 20 20 19 19 18 18 17 17 16 16 16 15 15 15 15 14 14 14 14 13
19 19 19 20 20 19 18 17 17 17 16 17 17 17 17 18 18 18 19 20 20 20 20 20 20 20 20 19 19 18 18 17 17 16 16 15 15 15 15 14 14 14 14 14
19 18 19 20 20 19 18 17 17 17 17 16 17 17 18 19 19 19 19 20 20 20 20 20 20 20 20 19 19 18 18 17 17 16 16 15 15 15 15 14 14 14 14 13
18 19 20 20 20 19 18 16 16 15 16 16 17 18 18 19 19 18 19 19 20 20 21 21 20 20 20 19 19 18 18 17 17 16 16 16 15 15 15 14 14 14 14 14
18 19 19 19 20 19 18 16 15 16 16 17 18 18 18 20 19 19 18 19 20 21 21 20 20 20 20 19 19 18 18 17 17 16 16 16 15 15 15 14 14 14 14 14
18 18 19 19 20 19 18 17 15 14 15 16 17 18 18 18 19 18 18 19 20 21 21 21 21 20 20 19 19 18 18 17 17 16 16 16 15 15 15 15 14 14 14 14
17 16 17 18 19 19 19 18 16 17 16 15 16 17 19 18 17 18 19 20 21 21 21 21 20 20 20 19 19 18 18 17 17 17 16 16 15 15 15 15 14 14 14 14
17 16 17 18 18 18 19 18 16 15 14 14 16 18 18 17 18 18 19 19 20 21 21 20 20 20 19 19 19 18 18 18 17 17 16 16 16 15 15 15 14 14 14 14
17 16 16 18 18 18 18 19 17 16 15 16 16 18 18 18 17 17 18 19 20 20 20 20 20 20 19 19 19 18 18 18 17 17 16 16 16 16 15 15 15 14 14 14
16 17 17 17 18 18 18 18 18 17 16 16 17 18 18 17 17 17 18 18 19 19 19 19 19 19 19 19 19 18 18 18 17 17 17 16 16 16 15 15 15 14 14 14
15 17 17 18 18 17 18 18 18 18 17 17 17 17 17 17 17 17 17 18 18 19 19 19 19 19 19 19 19 18 18 18 17 17 17 16 16 16 15 15 15 14 14 14
14 15 16 16 16 18 18 18 18 17 17 17 17 17 16 16 17 17 17 18 18 19 19 19 19 19 19 19 19 19 18 18 17 17 17 16 16 16 15 15 15 14 14 14
14 14 13 14 17 18 17 17 17 17 16 16 16 16 16 16 17 18 18 18 19 19 19 19 19 19 19 19 18 18 18 18 17 17 17 17 16 16 15 15 15 14 14 14
13 13 13 13 15 16 17 17 17 17 16 16 15 15 16 17 17 17 18 18 18 19 19 19 19 19 19 19 18 18 18 17 17 17 17 17 16 16 16 15 15 15 14 14
12 12 12 13 16 16 17 17 17 17 16 16 15 15 16 16 15 15 18 18 18 18 18 18 18 18 18 18 18 18 18 17 17 17 17 16 16 16 16 15 15 15 14 14
13 12 12 13 14 15 15 16 17 16 16 16 16 16 16 15 15 17 17 18 18 18 18 18 18 18 18 18 17 17 17 17 17 17 17 16 16 16 15 15 15 15 14 14
13 12 12 12 13 15 15 15 15 15 16 16 16 16 16 16 17 17 17 17 17 17 17 17 17 17 17 17 17 17 17 17 17 16 16 16 16 16 15 15 15 15 14 14
12 12 11 12 13 14 15 15 16 16 16 16 16 16 16 16 16 16 16 17 17 17 17 17 17 17 16 16 16 16 16 16 16 16 16 16 16 15 15 15 15 15 14 14
11 11 11 12 13 14 15 15 15 15 15 15 15 15 16 16 16 16 16 16 16 16 16 16 16 16 16 16 16 16 15 15 15 16 16 16 15 15 15 15 15 14 14 14
11 11 11 11 12 14 15 15 15 15 15 15 15 15 15 15 15 15 15 15 15 15 15 15 15 15 15 15 15 15 15 15 15 15 15 15 15 15 15 15 15 14 14 14
9 11 11 11 13 12 13 14 14 14 14 14 14 14 14 14 14 14 14 14 14 14 14 14 14 14 14 14 14 14 14 14 14 14 15 15 14 14 14 14 14 14 14 13